Regional Weather Roundup
Issued by NWS

Home | Current Version | Previous Version | Text Only | Print | Product List | Glossary Off
Versions: 1 2 3 4 5 6 7 8 9 10 11 12 13 14 15 16 17 18 19 20 21 22 23 24 25 26 27 28 29 30 31 32 33 34 35 36 37 38 39 40 41 42 43 44 45 46 47 48 49 50

000
ASUS43 KMPX 061701
RWRMN
WEATHER ROUNDUP FOR MINNESOTA
NATIONAL WEATHER SERVICE TWIN CITIES/CHANHASSEN MN
1100 AM CST TUE DEC 06 2016


NOTE: "FAIR" INDICATES FEW OR NO CLOUDS BELOW 12,000 FEET WITH NO
SIGNIFICANT WEATHER AND/OR OBSTRUCTIONS TO VISIBILITY. N/A MEANS
CURRENT SKY AND/OR WEATHER CONDITIONS ARE NOT AVAILABLE.

MNZ060>063-068>070-061800-
   Twin Cities Metro

CITY           SKY/WX    TMP DP  RH WIND       PRES   REMARKS
TWIN CITIES    CLOUDY    21   9  59 W18G36    29.73F WCI   6
ST PAUL        FLURRIES  22  13  68 W21G29    29.75S WCI   6
CRYSTAL        CLOUDY    21   9  59 SW17G24   29.71S WCI   7
BLAINE         FLURRIES  23  14  68 SW18G26   29.70S WCI   9
LAKEVILLE      FLURRIES  19  12  73 SW15G24   29.74F WCI   5
EDEN PRAIRIE   CLOUDY    21  10  62 SW24G32   29.73S WCI   4
SOUTH ST PAUL  CLOUDY    23  13  66 SW13G23   29.74F WCI  11
$$
MNZ001>005-007-008-013>017-022>024-027-028-061800-
   Northwest Minnesota

CITY           SKY/WX    TMP DP  RH WIND       PRES   REMARKS
HALLOCK        LGT SNOW  25  21  86 NE8       29.37R VSB 3/4 WCI  16
ROSEAU         CLOUDY    23  19  86 SE10      29.37S WCI  12
WARROAD        CLOUDY    23  19  86 SE12      29.38S WCI  12
THIEF RVR FALL LGT SNOW  23  19  86 E17       29.27S FOG     WCI   9
MOORHEAD       LGT RAIN  21  18  86 W32G40    29.44S VSB 1/2 WCI   2
PARK RAPIDS    LGT SNOW  22  16  78 S16       29.38F WCI   8
$$
MNZ006-009>011-018-025>026-061800-
   North Central Minnesota

CITY           SKY/WX    TMP DP  RH WIND       PRES   REMARKS
BAUDETTE       CLOUDY    22  16  78 S13       29.39F WCI  10
FLAG ISLAND    CLOUDY    25  21  86 SE18      29.38S WCI  11
BIG FORK       LGT SNOW  21  16  79 S12G24    29.43F WCI   9
LONGVILLE      LGT SNOW  19  14  79 S15G24    29.45F WCI   5
CRANE LAKE     CLOUDY    25  19  80 S9G21     29.48F WCI  15
$$
MNZ012-019>021-037-061800-
   Northeast Minnesota

CITY           SKY/WX    TMP DP  RH WIND       PRES   REMARKS
ELY            CLOUDY    27  21  80 SW14G21   29.46F WCI  15
HIBBING        LGT SNOW  20  16  84 S10G23    29.48F FOG     WCI   9
EVELETH        MIX PCPN  23  16  74 SW14G22   29.49F WCI  10
DULUTH HARBOR  PTSUNNY   28  19  69 SW23G31   29.58F WCI  14
GRAND MARAIS     N/A     35  34  96 SW21      29.55F WCI  24
$$
MNZ029>031-032-039>041-046>048-054>057-064-061800-
   West Central Minnesota

CITY           SKY/WX    TMP DP  RH WIND       PRES   REMARKS
FERGUS FALLS   LGT SNOW  19  18  93 W25G37    29.57R VSB 1   WCI   2
WHEATON        LGT SNOW  21  18  86 W20G35    29.64R VSB 1   WCI   6
ALEXANDRIA     LGT SNOW  21  17  84 W22G30    29.56R VSB 1   WCI   5
ELBOW LAKE     LGT SNOW  20  18  91 NW31G46   29.57R VSB 3/4 WCI   1
WADENA         LGT SNOW  21  19  93 SW17G26   29.45R WCI   7
APPLETON       CLOUDY    23  12  63 W30G40    29.67R WCI   5
ORTONVILLE     CLOUDY    19  10  68 W25G38    29.67R WCI   2
MADISON        PTSUNNY   21  12  68 W28G40    29.72S WCI   3
WILLMAR        LGT SNOW  21  16  79 W29G37    29.68S WCI   3
$$
MNZ033>034-036-042>043-049>051-058-059-061800-
   Central Minnesota

CITY           SKY/WX    TMP DP  RH WIND       PRES   REMARKS
ST CLOUD       FLURRIES  20  13  74 SW23G30   29.64F WCI   3
PAYNESVILLE    LGT SNOW  20  15  82 SW23G29   29.65S WCI   3
PINE RIVER     CLOUDY    19  16  86 S13G24    29.50F FOG     WCI   7
BRAINERD       LGT SNOW  20  14  77 S22G28    29.52F WCI   3
STAPLES        CLOUDY    21  18  86 SW17      29.48F FOG     WCI   7
LITTLE FALLS   LGT SNOW  21  16  79 SW17G25   29.58F WCI   7
HUTCHINSON     LGT SNOW  21  16  79 SW21G31   29.72S WCI   6
$$
MNZ037-044-045-052-053-061800-
   East Central Minnesota

CITY           SKY/WX    TMP DP  RH WIND       PRES   REMARKS
PRINCETON      FLURRIES  21  14  73 SW15G23   29.64F WCI   8
MORA           PTSUNNY   21  12  68 SW18G26   29.64F WCI   6
CAMBRIDGE      FLURRIES  23  12  63 SW12G24   29.65S WCI  12
RUSH CITY      CLOUDY    21  14  73 SW16G26   29.66S WCI   7
CLOQUET        FLURRIES  21  16  79 S18G26    29.54S WCI   6
MCGREGOR       CLOUDY    21  18  86 S21       29.54F WCI   6
$$
MNZ071>073-080-081-089-090-097-098-061800-
   Southwest Minnesota

CITY           SKY/WX    TMP DP  RH WIND       PRES   REMARKS
MONTEVIDEO     CLOUDY    21  10  63 NW20G39   29.73R WCI   6
REDWOOD FALLS  LGT SNOW  20  11  68 W22G38    29.76R WCI   3
PIPESTONE      CLOUDY    18  10  73 NW24G41   29.81R WCI   0
JACKSON        CLOUDY    19  10  68 W31G39    29.80F WCI   0
TRACY          CLOUDY    21  12  69 W22G35    29.77R WCI   4
SLAYTON        CLOUDY    17  10  73 W30G43    29.79R WCI  -3
$$
MNZ065>067-074>077-082>085-091>093-061800-
   South Central Minnesota

CITY           SKY/WX    TMP DP  RH WIND       PRES   REMARKS
MANKATO        FLURRIES  21  12  68 W21G32    29.78S WCI   6
ST JAMES       PTSUNNY   21  10  63 SW25G35   29.81S WCI   4
GLENCOE        FLURRIES  22  15  76 SW20G29   29.74S WCI   7
FARIBAULT      CLOUDY    21  12  68 SW23G29   29.78F WCI   5
OWATONNA       CLOUDY    21  14  73 SW21G28   29.79R WCI   6
$$
MNZ078>079-086>088-094>096-061800-
   Southeast Minnesota

CITY           SKY/WX    TMP DP  RH WIND       PRES   REMARKS
RED WING       CLOUDY    25  16  68 W16G24    29.75S WCI  12
STANTON        FLURRIES  23  14  68 W17G26    29.75F WCI  10
DODGE CENTER   CLOUDY    21  16  79 W25G32    29.76F WCI   4
WINONA         CLOUDY    28  21  74 W13G22    29.79S WCI  18
AUSTIN         MOSUNNY   21  14  73 W18G25    29.80R WCI   6
PRESTON        PTSUNNY   21  15  76 W21       29.79S HAZE    WCI   5
$$
ABBREVIATIONS USED IN REMARKS
   TC - TEMPERATURES IN CELSIUS
  WCI - WIND CHILL INDEX
   HX - HEAT INDEX
  VSB - VISIBILITY
$$




USA.gov is the U.S. government's official web portal to all federal, state and local government web resources and services.